(263698) = 2008 HO11

Discovered at Kitt Peak on 2008-04-24 by Spacewatch.

Orbit

Orbit type: Main Belt

Note: WebGL enabled browser required.

epoch2024-03-31.0
epoch JD2460400.5
perihelion date2024-03-18.93221
perihelion JD2460388.43221
argument of perihelion (°)8.37716
ascending node (°)159.70193
inclination (°)10.23608
eccentricity0.0319049
perihelion distance (AU)3.0433456
Tisserand w.r.t. Jupiter3.2
ΔV w.r.t. Earth (km/sec)11.2
semimajor axis (AU)3.1436433
mean anomaly (°)2.13394
mean daily motion (°/day)0.17682920
aphelion distance (AU)3.244
period (years)5.57
P-vector [x]-0.97762928
P-vector [y]0.18121328
P-vector [z]0.10678360
Q-vector [x]-0.20109875
Q-vector [y]-0.95407816
Q-vector [z]-0.22202286
absolute magnitude16.05
phase slope0.15
uncertainty0
referenceMPEC 2024-F14
observations used267
oppositions15
arc length (days)9784
first opposition used1997
last opposition used2024
residual rms (arc-secs)0.72
perturbers coarse indicatorM-v
perturbers precise indicator003Ek
first observation date used1997-06-03.0
last observation date used2024-03-17.0
computer nameMPCLINUX
JD of orbit computation2456877.942279
perihelion JD uncertainty (days)6.6091E-04
argument of perihelion uncertainty (°)1.2321E-04
ascending node uncertainty (°)3.1688E-05
inclination uncertainty (°)6.5835E-06
eccentricity uncertainty 6.5631E-08
perihelion distance uncertainty (AU)2.1428E-07
Minimum Orbit Intersection Distances (in AU)
for orbit epoch: 2460400.5, reference: E2024-GD4
Mercury2.6356
Venus2.3242
Earth2.05096
Mars1.37979
Jupiter1.72281
Saturn5.96513
Uranus15.3957
Neptune26.6188

Observations

269 total observations over interval: 1997 06 03.24196 – 2024 03 17.379566
These data are available for download (format description).

Date (UT) J2000 RA J2000 Dec Magn Location Ref
1997 06 03.24196 16 10 09.62 -05 59 19.8 21.0 V 691 – Steward Observatory, Kitt Peak-Spacewatch MPS 251033
1997 06 03.26323 16 10 08.64 -05 59 18.2 20.9 V 691 – Steward Observatory, Kitt Peak-Spacewatch MPS 251033
1997 06 03.28433 16 10 07.68 -05 59 17.0 21.2 V 691 – Steward Observatory, Kitt Peak-Spacewatch MPS 251033
2004 09 11.32841 23 20 26.47 -06 37 23.3 20.3 V 691 – Steward Observatory, Kitt Peak-Spacewatch MPS 251033
2004 09 11.35700 23 20 25.28 -06 37 35.4 20.2 V 691 – Steward Observatory, Kitt Peak-Spacewatch MPS 251033
2004 09 11.38821 23 20 23.96 -06 37 48.8 20.5 V 691 – Steward Observatory, Kitt Peak-Spacewatch MPS 251033
2004 09 24.13365 23 12 00.25 -08 04 03.6 21.4 V 291 – LPL/Spacewatch II MPS 251033
2004 09 24.14082 23 11 59.97 -08 04 06.9 21.5 V 291 – LPL/Spacewatch II MPS 251033
2004 09 24.14710 23 11 59.75 -08 04 09.3 21.3 V 291 – LPL/Spacewatch II MPS 251033
2004 10 07.22006 23 04 49.38 -09 17 40.7 21.1 V 291 – LPL/Spacewatch II MPS 251033
2004 10 07.22776 23 04 49.19 -09 17 42.4 20.8 V 291 – LPL/Spacewatch II MPS 251033
2004 10 07.23557 23 04 48.89 -09 17 45.0 21.2 V 291 – LPL/Spacewatch II MPS 251033
2007 01 29.42005 10 05 58.24 +07 18 19.8 20.5 V 691 – Steward Observatory, Kitt Peak-Spacewatch MPS 251033
2007 01 29.43791 10 05 57.56 +07 18 25.8 21.0 V 691 – Steward Observatory, Kitt Peak-Spacewatch MPS 251033
2007 01 29.45601 10 05 56.88 +07 18 31.8 20.8 V 691 – Steward Observatory, Kitt Peak-Spacewatch MPS 251033
2007 02 26.16419 09 46 31.36 +10 21 26.0 20.5 V G96 – Mt. Lemmon Survey MPS 251033
2007 02 26.17102 09 46 31.08 +10 21 29.5 20.3 V G96 – Mt. Lemmon Survey MPS 251033
2007 02 26.17772 09 46 30.82 +10 21 31.9 20.3 V G96 – Mt. Lemmon Survey MPS 251033
2007 02 26.18451 09 46 30.50 +10 21 34.1 21.3 V G96 – Mt. Lemmon Survey MPS 251033
2007 03 14.25289 09 36 52.30 +12 04 18.2 20.5 V G96 – Mt. Lemmon Survey MPS 251033
2007 03 14.26087 09 36 52.09 +12 04 20.8 20.7 V G96 – Mt. Lemmon Survey MPS 251033
2007 03 14.26896 09 36 51.84 +12 04 23.9 20.8 V G96 – Mt. Lemmon Survey MPS 251033
2007 03 14.27700 09 36 51.58 +12 04 26.4 20.8 V G96 – Mt. Lemmon Survey MPS 251033
2007 03 26.13685 09 32 34.98 +13 04 30.4 21.5 V G96 – Mt. Lemmon Survey MPS 251033
2007 03 26.14279 09 32 34.83 +13 04 32.3 20.1 V G96 – Mt. Lemmon Survey MPS 251033
2007 03 26.14874 09 32 34.72 +13 04 33.9 20.0 V G96 – Mt. Lemmon Survey MPS 251033
2007 03 26.15476 09 32 34.69 +13 04 35.0 20.2 V G96 – Mt. Lemmon Survey MPS 251033
2008 04 06.44540 15 39 11.08 -06 42 01.8 20.8 V 691 – Steward Observatory, Kitt Peak-Spacewatch MPS 251033
2008 04 06.46301 15 39 10.67 -06 41 56.4 20.8 V 691 – Steward Observatory, Kitt Peak-Spacewatch MPS 251033
2008 04 06.48062 15 39 10.12 -06 41 48.3 20.0 V 691 – Steward Observatory, Kitt Peak-Spacewatch MPS 251033
2008 04 24.32593 15 30 21.48 -05 06 27.4 20.5 V 691 – Steward Observatory, Kitt Peak-Spacewatch MPS 248242
2008 04 24.34351 15 30 20.80 -05 06 21.9 20.7 V 691 – Steward Observatory, Kitt Peak-Spacewatch MPS 248242
2008 04 24.36108 15 30 20.08 -05 06 16.1 20.6 V 691 – Steward Observatory, Kitt Peak-Spacewatch MPS 248242
2008 04 29.34375 15 27 02.68 -04 41 02.0   691 – Steward Observatory, Kitt Peak-Spacewatch MPS 248242
2008 04 29.36137 15 27 01.91 -04 40 56.4   691 – Steward Observatory, Kitt Peak-Spacewatch MPS 248242
2008 04 29.37898 15 27 01.18 -04 40 51.4   691 – Steward Observatory, Kitt Peak-Spacewatch MPS 248242
2008 05 03.31115 15 24 15.59 -04 22 02.4 20.4 V 691 – Steward Observatory, Kitt Peak-Spacewatch MPS 249063
2008 05 03.32880 15 24 14.83 -04 21 57.5 20.5 V 691 – Steward Observatory, Kitt Peak-Spacewatch MPS 249063
2008 05 03.34389 15 24 14.13 -04 21 52.9 20.5 V 691 – Steward Observatory, Kitt Peak-Spacewatch MPS 249063
2008 05 07.30247 15 21 21.66 -04 04 12.6 20.4 V 691 – Steward Observatory, Kitt Peak-Spacewatch MPS 249063
2008 05 07.31766 15 21 20.93 -04 04 08.3 20.5 V 691 – Steward Observatory, Kitt Peak-Spacewatch MPS 249063
2008 05 07.33285 15 21 20.23 -04 04 04.4 20.5 V 691 – Steward Observatory, Kitt Peak-Spacewatch MPS 249063
2008 06 01.27545 15 04 00.69 -02 54 48.9 20.4 V G96 – Mt. Lemmon Survey MPS 251033
2008 06 01.27598 15 04 00.69 -02 54 49.2 20.6 V G96 – Mt. Lemmon Survey MPS 251033
2008 06 01.28256 15 04 00.44 -02 54 48.6 20.7 V G96 – Mt. Lemmon Survey MPS 251033
2008 06 01.28309 15 04 00.44 -02 54 48.4 20.5 V G96 – Mt. Lemmon Survey MPS 251033
2008 06 01.28958 15 04 00.15 -02 54 47.8 20.5 V G96 – Mt. Lemmon Survey MPS 251033
2008 06 01.29013 15 04 00.19 -02 54 47.8 20.8 V G96 – Mt. Lemmon Survey MPS 251033
2008 06 01.29715 15 03 59.94 -02 54 47.7 20.8 V G96 – Mt. Lemmon Survey MPS 251033
2010 09 27.438574 01 35 09.651 +00 30 46.67 20.47 i F51 – Pan-STARRS 1, Haleakala MPS 365748
2010 09 27.450217 01 35 09.214 +00 30 42.01 20.43 i F51 – Pan-STARRS 1, Haleakala MPS 365748
2010 10 07.517587 01 28 43.157 -00 37 22.56 21.09 g F51 – Pan-STARRS 1, Haleakala MPS 365748
2010 10 07.529223 01 28 42.679 -00 37 27.01 21.28 g F51 – Pan-STARRS 1, Haleakala MPS 365748
2013 03 07.21587 12 15 41.50 +03 10 52.1 20.1 V 691 – Steward Observatory, Kitt Peak-Spacewatch MPS 459082
2013 03 07.23352 12 15 40.76 +03 10 58.7 20.6 V 691 – Steward Observatory, Kitt Peak-Spacewatch MPS 459082
2013 03 07.25118 12 15 40.10 +03 11 06.7 20.5 V 691 – Steward Observatory, Kitt Peak-Spacewatch MPS 459082
2013 03 07.45736 12 15 32.47 +03 12 38.9 19.9 V G96 – Mt. Lemmon Survey MPS 459082
2013 03 07.46262 12 15 32.25 +03 12 41.0 20.0 V G96 – Mt. Lemmon Survey MPS 459082
2013 03 07.46799 12 15 32.04 +03 12 43.5 19.7 V G96 – Mt. Lemmon Survey MPS 459082
2013 03 07.47323 12 15 31.78 +03 12 45.7 19.7 V G96 – Mt. Lemmon Survey MPS 459082
2013 03 08.45242 12 14 56.304 +03 20 06.61 20.3 w F51 – Pan-STARRS 1, Haleakala MPS 460407
2013 03 08.46650 12 14 55.764 +03 20 13.02 20.3 w F51 – Pan-STARRS 1, Haleakala MPS 460407
2013 03 08.48062 12 14 55.219 +03 20 19.35 20.6 w F51 – Pan-STARRS 1, Haleakala MPS 460407
2013 03 11.19872 12 13 13.16 +03 40 50.7 20.7 V 691 – Steward Observatory, Kitt Peak-Spacewatch MPS 460407
2013 03 11.21637 12 13 12.48 +03 40 58.8 20.2 V 691 – Steward Observatory, Kitt Peak-Spacewatch MPS 460407
2013 03 11.23402 12 13 11.75 +03 41 07.2 20.5 V 691 – Steward Observatory, Kitt Peak-Spacewatch MPS 460407
2013 03 13.22754 12 11 54.31 +03 56 15.7 20.0 G G45 – Space Surveillance Telescope, Atom Site MPS 1608625
2013 03 13.24198 12 11 53.73 +03 56 23.1 20.6 G G45 – Space Surveillance Telescope, Atom Site MPS 1608625
2013 03 13.26468 12 11 52.79 +03 56 33.1 20.4 G G45 – Space Surveillance Telescope, Atom Site MPS 1608625
2013 03 13.34197 12 11 49.62 +03 57 08.7 20.6 G G45 – Space Surveillance Telescope, Atom Site MPS 1608625
2013 03 14.19215 12 11 16.26 +04 03 37.6 20.8 V 691 – Steward Observatory, Kitt Peak-Spacewatch MPS 460407
2013 03 14.21002 12 11 15.54 +04 03 46.1 20.1 V 691 – Steward Observatory, Kitt Peak-Spacewatch MPS 460407
2013 03 14.22790 12 11 14.78 +04 03 53.7 20.2 V 691 – Steward Observatory, Kitt Peak-Spacewatch MPS 460407
2013 03 15.22778 12 10 34.89 +04 11 30.7 20.5 G G45 – Space Surveillance Telescope, Atom Site MPS 1608625
2013 03 15.23910 12 10 34.44 +04 11 35.9 20.4 G G45 – Space Surveillance Telescope, Atom Site MPS 1608625
2013 03 15.26706 12 10 33.27 +04 11 48.4 20.7 G G45 – Space Surveillance Telescope, Atom Site MPS 1608625
2013 03 15.35431 12 10 29.64 +04 12 28.4 20.7 G G45 – Space Surveillance Telescope, Atom Site MPS 1608625
2013 03 18.20377 12 08 34.49 +04 34 06.5 20.6 V 691 – Steward Observatory, Kitt Peak-Spacewatch MPS 461536
2013 03 18.22165 12 08 33.75 +04 34 14.8 20.2 V 691 – Steward Observatory, Kitt Peak-Spacewatch MPS 461536
2013 03 18.23954 12 08 33.01 +04 34 22.5 20.1 V 691 – Steward Observatory, Kitt Peak-Spacewatch MPS 461536
2013 04 01.23661 11 59 05.35 +06 14 36.3 20.0 V 703 – Catalina Sky Survey MPS 462563
2013 04 01.24497 11 59 04.99 +06 14 40.3 20.0 V 703 – Catalina Sky Survey MPS 462563
2013 04 01.25341 11 59 04.63 +06 14 42.9 21.3 V 703 – Catalina Sky Survey MPS 462563
2013 04 01.26192 11 59 04.34 +06 14 47.1 21.2 V 703 – Catalina Sky Survey MPS 462563
2014 06 16.35250 17 23 37.59 -08 31 41.4 20.6 V G96 – Mt. Lemmon Survey MPS 519923
